INMARSAT 3-F1

Last updated on Jan. 27, 2020, 4:38 a.m. UTC

1 23839U 96020A   20026.71764109 -.00000002  00000-0  00000+0 0  9999
2 23839   5.7951  63.0408 0005743 248.6559 136.5766  1.00272076 87221
UTC
Height (km)
Latitude
Longitude
Inclination
Orbital Period
UTC large
Height (km)
Speed (km/s)
/
Latitude / Longitude
Inclination (degrees)
Orbital Period (minutes)
Azimuth
Elevation
Range (km)
Doppler Factor
iOS Compass Heading
iOS Angle

Next 30 passes for location: Hong Kong

Rise time Rise Azimuth (degrees) Set time Set Azimuth (degrees) Duration Max altitude (degrees)

No matching passes for this satellites